Terminal Aerodrome Forecast
Issued by NWS Portland, OR

Home | Current Version | Previous Version | Text Only | Print | Product List | Glossary On
Versions: 1 2 3 4 5 6 7 8 9 10 11 12 13 14 15 16 17 18 19 20 21 22 23 24
000
FTUS46 KPQR 032327
TAFTTD
TAF
KTTD 032327Z 0400/0424 VRB05KT P6SM FEW100 SCT200
     FM041300 VRB03KT P6SM BKN015
     FM041700 26003KT P6SM FEW020=

USA.gov is the U.S. government's official web portal to all federal, state and local government web resources and services.